Time,TemperatureF,DewpointF,PressureIn,WindDirection,WindDirectionDegrees,WindSpeedMPH,WindSpeedGustMPH,Humidity,HourlyPrecipIn,Conditions,Clouds,dailyrainin,SoftwareType,DateUTC
2013-03-30 00:02:00,50.0,39.0,30.21,NE,42,1.0,-999.0,66,-99.99,,,-99.99,,2013-03-30 04:02:00,
2013-03-30 00:13:00,50.0,39.0,30.21,NE,42,1.0,-999.0,66,-99.99,,,-99.99,,2013-03-30 04:13:00,
2013-03-30 00:23:00,50.0,39.0,30.21,NE,42,1.0,-999.0,66,-99.99,,,-99.99,,2013-03-30 04:23:00,
2013-03-30 00:33:00,50.0,39.0,30.20,ENE,57,0.0,-999.0,66,-99.99,,,-99.99,,2013-03-30 04:33:00,
2013-03-30 00:43:00,50.0,39.0,30.20,ENE,57,0.0,-999.0,66,-99.99,,,-99.99,,2013-03-30 04:43:00,
2013-03-30 00:53:00,50.0,39.0,30.20,ENE,58,0.0,-999.0,67,-99.99,,,-99.99,,2013-03-30 04:53:00,
2013-03-30 01:02:00,50.0,40.0,30.20,ENE,58,0.0,-999.0,68,-99.99,,,-99.99,,2013-03-30 05:02:00,
2013-03-30 01:12:00,50.0,40.0,30.20,ENE,58,0.0,-999.0,68,-99.99,,,-99.99,,2013-03-30 05:12:00,
2013-03-30 01:22:00,50.0,40.0,30.21,ENE,58,0.0,-999.0,69,-99.99,,,-99.99,,2013-03-30 05:22:00,
2013-03-30 01:32:00,49.0,40.0,30.20,ENE,59,0.0,-999.0,70,-99.99,,,-99.99,,2013-03-30 05:32:00,
2013-03-30 01:42:00,49.0,40.0,30.20,ENE,59,0.0,-999.0,70,-99.99,,,-99.99,,2013-03-30 05:42:00,
2013-03-30 01:52:00,49.0,41.0,30.21,ENE,58,0.0,-999.0,74,-99.99,,,-99.99,,2013-03-30 05:52:00,
2013-03-30 02:02:00,49.0,41.0,30.20,ENE,58,0.0,-999.0,73,-99.99,,,-99.99,,2013-03-30 06:02:00,
2013-03-30 02:12:00,49.0,41.0,30.20,ENE,58,0.0,-999.0,73,-99.99,,,-99.99,,2013-03-30 06:12:00,
2013-03-30 02:23:00,49.0,41.0,30.20,ENE,58,0.0,-999.0,74,-99.99,,,-99.99,,2013-03-30 06:23:00,
2013-03-30 02:32:00,48.0,40.0,30.21,ENE,58,0.0,-999.0,74,-99.99,,,-99.99,,2013-03-30 06:32:00,
2013-03-30 02:42:00,48.0,40.0,30.21,ENE,58,0.0,-999.0,74,-99.99,,,-99.99,,2013-03-30 06:42:00,
2013-03-30 02:52:00,48.0,41.0,30.19,ENE,58,0.0,-999.0,76,-99.99,,,-99.99,,2013-03-30 06:52:00,
2013-03-30 03:02:00,48.0,41.0,30.18,ENE,62,1.0,-999.0,77,-99.99,,,-99.99,,2013-03-30 07:02:00,
2013-03-30 03:12:00,48.0,41.0,30.18,ENE,62,1.0,-999.0,77,-99.99,,,-99.99,,2013-03-30 07:12:00,
2013-03-30 03:22:00,47.0,41.0,30.18,ENE,63,1.0,-999.0,78,-99.99,,,-99.99,,2013-03-30 07:22:00,
2013-03-30 03:32:00,47.0,41.0,30.17,ENE,63,0.0,-999.0,79,-99.99,,,-99.99,,2013-03-30 07:32:00,
2013-03-30 03:42:00,47.0,41.0,30.17,ENE,63,0.0,-999.0,79,-99.99,,,-99.99,,2013-03-30 07:42:00,
2013-03-30 03:52:00,47.0,41.0,30.18,ENE,63,0.0,-999.0,78,-99.99,,,-99.99,,2013-03-30 07:52:00,
2013-03-30 04:02:00,47.0,41.0,30.18,ENE,63,1.0,-999.0,79,-99.99,,,-99.99,,2013-03-30 08:02:00,
2013-03-30 04:12:00,47.0,41.0,30.18,ENE,63,1.0,-999.0,79,-99.99,,,-99.99,,2013-03-30 08:12:00,
2013-03-30 04:22:00,47.0,41.0,30.17,ENE,63,0.0,-999.0,80,-99.99,,,-99.99,,2013-03-30 08:22:00,
2013-03-30 04:32:00,47.0,41.0,30.18,ENE,63,0.0,-999.0,80,-99.99,,,-99.99,,2013-03-30 08:32:00,
2013-03-30 04:42:00,47.0,41.0,30.18,ENE,63,0.0,-999.0,80,-99.99,,,-99.99,,2013-03-30 08:42:00,
2013-03-30 04:53:00,47.0,41.0,30.18,ENE,63,0.0,-999.0,80,-99.99,,,-99.99,,2013-03-30 08:53:00,
2013-03-30 05:02:00,47.0,41.0,30.17,ENE,63,0.0,-999.0,81,-99.99,,,-99.99,,2013-03-30 09:02:00,
2013-03-30 05:12:00,47.0,41.0,30.17,ENE,63,0.0,-999.0,81,-99.99,,,-99.99,,2013-03-30 09:12:00,
2013-03-30 05:22:00,47.0,41.0,30.17,ENE,63,0.0,-999.0,81,-99.99,,,-99.99,,2013-03-30 09:22:00,
2013-03-30 05:43:00,46.0,41.0,30.17,SE,138,1.0,-999.0,81,-99.99,,,-99.99,,2013-03-30 09:43:00,
2013-03-30 05:54:00,46.0,41.0,30.19,SE,138,0.0,-999.0,81,-99.99,,,-99.99,,2013-03-30 09:54:00,
2013-03-30 06:03:00,46.0,41.0,30.18,SE,138,0.0,-999.0,81,-99.99,,,-99.99,,2013-03-30 10:03:00,
2013-03-30 06:13:00,46.0,41.0,30.18,SE,138,0.0,-999.0,81,-99.99,,,-99.99,,2013-03-30 10:13:00,
2013-03-30 06:23:00,46.0,41.0,30.18,SE,138,0.0,-999.0,81,-99.99,,,-99.99,,2013-03-30 10:23:00,
2013-03-30 06:33:00,46.0,41.0,30.17,SE,137,0.0,-999.0,81,-99.99,,,-99.99,,2013-03-30 10:33:00,
2013-03-30 06:42:00,46.0,41.0,30.17,SE,137,0.0,-999.0,81,-99.99,,,-99.99,,2013-03-30 10:42:00,
2013-03-30 06:53:00,46.0,41.0,30.17,SE,134,1.0,-999.0,82,-99.99,,,-99.99,,2013-03-30 10:53:00,
2013-03-30 07:03:00,46.0,41.0,30.17,SE,135,0.0,-999.0,82,-99.99,,,-99.99,,2013-03-30 11:03:00,
2013-03-30 07:12:00,46.0,41.0,30.17,SE,135,0.0,-999.0,82,-99.99,,,-99.99,,2013-03-30 11:12:00,
2013-03-30 07:23:00,46.0,41.0,30.18,SE,135,0.0,-999.0,83,-99.99,,,-99.99,,2013-03-30 11:23:00,
2013-03-30 07:33:00,45.0,40.0,30.18,SE,134,0.0,-999.0,84,-99.99,,,-99.99,,2013-03-30 11:33:00,
2013-03-30 07:42:00,45.0,40.0,30.18,SE,134,0.0,-999.0,84,-99.99,,,-99.99,,2013-03-30 11:42:00,
2013-03-30 07:53:00,45.0,40.0,30.17,SE,135,0.0,-999.0,84,-99.99,,,-99.99,,2013-03-30 11:53:00,
2013-03-30 08:02:00,45.0,40.0,30.18,SE,134,0.0,-999.0,84,-99.99,,,-99.99,,2013-03-30 12:02:00,
2013-03-30 08:13:00,45.0,40.0,30.18,SE,134,0.0,-999.0,84,-99.99,,,-99.99,,2013-03-30 12:13:00,
2013-03-30 08:23:00,46.0,41.0,30.19,SE,134,0.0,-999.0,84,-99.99,,,-99.99,,2013-03-30 12:23:00,
2013-03-30 08:32:00,46.0,41.0,30.19,SE,134,0.0,-999.0,84,-99.99,,,-99.99,,2013-03-30 12:32:00,
2013-03-30 08:42:00,46.0,41.0,30.19,SE,134,0.0,-999.0,84,-99.99,,,-99.99,,2013-03-30 12:42:00,
2013-03-30 08:53:00,46.0,41.0,30.19,NE,53,0.0,-999.0,83,-99.99,,,-99.99,,2013-03-30 12:53:00,
2013-03-30 09:02:00,47.0,42.0,30.19,NE,51,1.0,-999.0,83,-99.99,,,-99.99,,2013-03-30 13:02:00,
2013-03-30 09:12:00,47.0,42.0,30.19,NE,51,1.0,-999.0,83,-99.99,,,-99.99,,2013-03-30 13:12:00,
2013-03-30 09:22:00,47.0,42.0,30.19,NE,51,1.0,-999.0,83,-99.99,,,-99.99,,2013-03-30 13:22:00,
2013-03-30 09:32:00,50.0,43.0,30.19,NE,46,2.0,-999.0,78,-99.99,,,-99.99,,2013-03-30 13:32:00,
2013-03-30 09:43:00,50.0,43.0,30.19,NE,46,2.0,-999.0,78,-99.99,,,-99.99,,2013-03-30 13:43:00,
2013-03-30 09:53:00,50.0,43.0,30.19,NE,46,2.0,-999.0,78,-99.99,,,-99.99,,2013-03-30 13:53:00,
2013-03-30 10:03:00,52.0,44.0,30.19,NE,38,2.0,-999.0,74,-99.99,,,-99.99,,2013-03-30 14:03:00,
2013-03-30 10:12:00,52.0,44.0,30.19,NE,38,2.0,-999.0,74,-99.99,,,-99.99,,2013-03-30 14:12:00,
2013-03-30 10:23:00,53.0,45.0,30.19,NNE,30,1.0,-999.0,73,-99.99,,,-99.99,,2013-03-30 14:23:00,
2013-03-30 10:32:00,54.0,44.0,30.19,East,80,1.0,-999.0,69,-99.99,,,-99.99,,2013-03-30 14:32:00,
2013-03-30 10:42:00,54.0,44.0,30.19,East,80,1.0,-999.0,69,-99.99,,,-99.99,,2013-03-30 14:42:00,
2013-03-30 10:53:00,55.0,44.0,30.19,ENE,61,1.0,-999.0,67,-99.99,,,-99.99,,2013-03-30 14:53:00,
2013-03-30 11:03:00,56.0,44.0,30.18,East,84,2.0,-999.0,65,-99.99,,,-99.99,,2013-03-30 15:03:00,
2013-03-30 11:12:00,56.0,44.0,30.18,East,84,2.0,-999.0,65,-99.99,,,-99.99,,2013-03-30 15:12:00,
2013-03-30 11:23:00,56.0,44.0,30.18,SE,140,2.0,-999.0,63,-99.99,,,-99.99,,2013-03-30 15:23:00,
2013-03-30 11:34:00,58.0,44.0,30.17,SE,136,2.0,-999.0,60,-99.99,,,-99.99,,2013-03-30 15:34:00,
2013-03-30 11:43:00,58.0,44.0,30.17,SE,136,2.0,-999.0,60,-99.99,,,-99.99,,2013-03-30 15:43:00,
2013-03-30 11:53:00,59.0,43.0,30.18,ENE,74,1.0,-999.0,55,-99.99,,,-99.99,,2013-03-30 15:53:00,
2013-03-30 12:03:00,59.0,43.0,30.17,NE,49,1.0,-999.0,55,-99.99,,,-99.99,,2013-03-30 16:03:00,
2013-03-30 12:13:00,60.0,42.0,30.17,North,355,2.0,-999.0,51,-99.99,,,-99.99,,2013-03-30 16:13:00,
2013-03-30 12:23:00,60.0,42.0,30.17,North,355,2.0,-999.0,51,-99.99,,,-99.99,,2013-03-30 16:23:00,
2013-03-30 12:33:00,60.0,41.0,30.16,ESE,106,4.0,-999.0,50,-99.99,,,-99.99,,2013-03-30 16:33:00,
2013-03-30 12:43:00,60.0,41.0,30.16,ESE,106,4.0,-999.0,50,-99.99,,,-99.99,,2013-03-30 16:43:00,
2013-03-30 12:53:00,61.0,42.0,30.16,SE,130,1.0,-999.0,49,-99.99,,,-99.99,,2013-03-30 16:53:00,
2013-03-30 13:02:00,61.0,42.0,30.15,NE,56,2.0,-999.0,49,-99.99,,,-99.99,,2013-03-30 17:02:00,
2013-03-30 13:13:00,61.0,42.0,30.15,NE,56,2.0,-999.0,49,-99.99,,,-99.99,,2013-03-30 17:13:00,
2013-03-30 13:23:00,62.0,42.0,30.14,WNW,290,2.0,-999.0,47,-99.99,,,-99.99,,2013-03-30 17:23:00,
2013-03-30 13:32:00,63.0,42.0,30.14,NE,55,2.0,-999.0,47,-99.99,,,-99.99,,2013-03-30 17:32:00,
2013-03-30 13:42:00,63.0,42.0,30.14,NE,55,2.0,-999.0,47,-99.99,,,-99.99,,2013-03-30 17:42:00,
2013-03-30 13:53:00,63.0,42.0,30.13,NE,54,1.0,-999.0,46,-99.99,,,-99.99,,2013-03-30 17:53:00,
2013-03-30 14:03:00,64.0,43.0,30.12,NE,34,1.0,-999.0,46,-99.99,,,-99.99,,2013-03-30 18:03:00,
2013-03-30 14:13:00,65.0,42.0,30.12,WNW,286,3.0,-999.0,43,-99.99,,,-99.99,,2013-03-30 18:13:00,
2013-03-30 14:22:00,65.0,42.0,30.12,WNW,286,3.0,-999.0,43,-99.99,,,-99.99,,2013-03-30 18:22:00,
2013-03-30 14:33:00,65.0,41.0,30.12,SE,140,2.0,-999.0,41,-99.99,,,-99.99,,2013-03-30 18:33:00,
2013-03-30 14:42:00,65.0,41.0,30.12,SE,140,2.0,-999.0,41,-99.99,,,-99.99,,2013-03-30 18:42:00,
2013-03-30 14:53:00,65.0,41.0,30.11,SSE,157,4.0,-999.0,41,-99.99,,,-99.99,,2013-03-30 18:53:00,
2013-03-30 15:03:00,66.0,42.0,30.11,SSW,192,2.0,-999.0,41,-99.99,,,-99.99,,2013-03-30 19:03:00,
2013-03-30 15:13:00,66.0,42.0,30.11,SSW,192,2.0,-999.0,41,-99.99,,,-99.99,,2013-03-30 19:13:00,
2013-03-30 15:22:00,67.0,41.0,30.10,West,270,3.0,-999.0,38,-99.99,,,-99.99,,2013-03-30 19:22:00,
2013-03-30 15:32:00,66.0,41.0,30.09,SW,219,3.0,-999.0,40,-99.99,,,-99.99,,2013-03-30 19:32:00,
2013-03-30 15:42:00,66.0,41.0,30.09,SW,219,3.0,-999.0,40,-99.99,,,-99.99,,2013-03-30 19:42:00,
2013-03-30 15:53:00,66.0,40.0,30.08,ESE,121,2.0,-999.0,39,-99.99,,,-99.99,,2013-03-30 19:53:00,
2013-03-30 16:02:00,67.0,41.0,30.08,WSW,248,4.0,-999.0,38,-99.99,,,-99.99,,2013-03-30 20:02:00,
2013-03-30 16:12:00,67.0,41.0,30.08,WSW,248,4.0,-999.0,38,-99.99,,,-99.99,,2013-03-30 20:12:00,
2013-03-30 16:22:00,66.0,40.0,30.07,SE,139,4.0,-999.0,39,-99.99,,,-99.99,,2013-03-30 20:22:00,
2013-03-30 16:33:00,66.0,40.0,30.06,SSE,153,3.0,-999.0,38,-99.99,,,-99.99,,2013-03-30 20:33:00,
2013-03-30 16:42:00,66.0,40.0,30.06,SSE,153,3.0,-999.0,38,-99.99,,,-99.99,,2013-03-30 20:42:00,
2013-03-30 16:53:00,66.0,40.0,30.06,South,188,3.0,-999.0,38,-99.99,,,-99.99,,2013-03-30 20:53:00,
2013-03-30 17:02:00,67.0,40.0,30.06,SE,130,4.0,-999.0,37,-99.99,,,-99.99,,2013-03-30 21:02:00,
2013-03-30 17:12:00,67.0,40.0,30.06,SE,130,4.0,-999.0,37,-99.99,,,-99.99,,2013-03-30 21:12:00,
2013-03-30 17:23:00,68.0,41.0,30.06,SSW,203,2.0,-999.0,37,-99.99,,,-99.99,,2013-03-30 21:23:00,
2013-03-30 17:34:00,68.0,40.0,30.05,WSW,246,3.0,-999.0,36,-99.99,,,-99.99,,2013-03-30 21:34:00,
2013-03-30 17:43:00,68.0,40.0,30.05,WSW,246,3.0,-999.0,36,-99.99,,,-99.99,,2013-03-30 21:43:00,
2013-03-30 17:53:00,67.0,40.0,30.05,WSW,246,2.0,-999.0,37,-99.99,,,-99.99,,2013-03-30 21:53:00,
2013-03-30 18:03:00,67.0,40.0,30.05,SW,223,2.0,-999.0,37,-99.99,,,-99.99,,2013-03-30 22:03:00,
2013-03-30 18:13:00,67.0,40.0,30.05,SW,223,2.0,-999.0,37,-99.99,,,-99.99,,2013-03-30 22:13:00,
2013-03-30 18:23:00,67.0,40.0,30.05,SW,223,2.0,-999.0,37,-99.99,,,-99.99,,2013-03-30 22:23:00,
2013-03-30 18:33:00,65.0,39.0,30.04,South,173,4.0,-999.0,39,-99.99,,,-99.99,,2013-03-30 22:33:00,
2013-03-30 18:43:00,65.0,39.0,30.04,South,173,4.0,-999.0,39,-99.99,,,-99.99,,2013-03-30 22:43:00,
2013-03-30 18:54:00,65.0,41.0,30.04,South,169,4.0,-999.0,41,-99.99,,,-99.99,,2013-03-30 22:54:00,
2013-03-30 19:03:00,65.0,40.0,30.04,South,180,3.0,-999.0,40,-99.99,,,-99.99,,2013-03-30 23:03:00,
2013-03-30 19:13:00,65.0,40.0,30.04,South,180,3.0,-999.0,40,-99.99,,,-99.99,,2013-03-30 23:13:00,
2013-03-30 19:22:00,65.0,40.0,30.04,SSW,207,1.0,-999.0,40,-99.99,,,-99.99,,2013-03-30 23:22:00,
2013-03-30 19:33:00,64.0,40.0,30.03,SW,235,1.0,-999.0,41,-99.99,,,-99.99,,2013-03-30 23:33:00,
2013-03-30 19:42:00,64.0,40.0,30.03,SW,235,1.0,-999.0,41,-99.99,,,-99.99,,2013-03-30 23:42:00,
2013-03-30 19:53:00,64.0,40.0,30.03,SSE,168,1.0,-999.0,42,-99.99,,,-99.99,,2013-03-30 23:53:00,
2013-03-30 20:03:00,64.0,40.0,30.03,SSE,168,0.0,-999.0,42,-99.99,,,-99.99,,2013-03-31 00:03:00,
2013-03-30 20:12:00,64.0,40.0,30.03,SSE,168,0.0,-999.0,42,-99.99,,,-99.99,,2013-03-31 00:12:00,
2013-03-30 20:22:00,63.0,41.0,30.03,SSE,168,0.0,-999.0,44,-99.99,,,-99.99,,2013-03-31 00:22:00,
2013-03-30 20:32:00,62.0,40.0,30.03,SSE,168,0.0,-999.0,45,-99.99,,,-99.99,,2013-03-31 00:32:00,
2013-03-30 20:43:00,62.0,40.0,30.03,SSE,168,0.0,-999.0,45,-99.99,,,-99.99,,2013-03-31 00:43:00,
2013-03-30 20:53:00,62.0,41.0,30.03,SSE,168,0.0,-999.0,46,-99.99,,,-99.99,,2013-03-31 00:53:00,
2013-03-30 21:02:00,61.0,42.0,30.03,SSE,168,0.0,-999.0,49,-99.99,,,-99.99,,2013-03-31 01:02:00,
2013-03-30 21:12:00,61.0,42.0,30.03,SSE,168,0.0,-999.0,49,-99.99,,,-99.99,,2013-03-31 01:12:00,
2013-03-30 21:22:00,60.0,42.0,30.03,SSE,168,0.0,-999.0,51,-99.99,,,-99.99,,2013-03-31 01:22:00,
2013-03-30 21:32:00,59.0,41.0,30.02,SSE,168,0.0,-999.0,52,-99.99,,,-99.99,,2013-03-31 01:32:00,
2013-03-30 21:42:00,59.0,41.0,30.02,SSE,168,0.0,-999.0,52,-99.99,,,-99.99,,2013-03-31 01:42:00,
2013-03-30 21:53:00,58.0,41.0,30.02,SSE,168,0.0,-999.0,54,-99.99,,,-99.99,,2013-03-31 01:53:00,
2013-03-30 22:02:00,58.0,41.0,30.02,SSE,168,0.0,-999.0,54,-99.99,,,-99.99,,2013-03-31 02:02:00,
2013-03-30 22:13:00,58.0,41.0,30.02,SSE,168,0.0,-999.0,54,-99.99,,,-99.99,,2013-03-31 02:13:00,
2013-03-30 22:22:00,57.0,41.0,30.02,SSE,168,0.0,-999.0,55,-99.99,,,-99.99,,2013-03-31 02:22:00,
2013-03-30 22:32:00,57.0,41.0,30.02,SSE,168,0.0,-999.0,56,-99.99,,,-99.99,,2013-03-31 02:32:00,
2013-03-30 22:43:00,57.0,41.0,30.02,SSE,168,0.0,-999.0,56,-99.99,,,-99.99,,2013-03-31 02:43:00,
2013-03-30 22:52:00,57.0,41.0,30.02,SSE,168,0.0,-999.0,56,-99.99,,,-99.99,,2013-03-31 02:52:00,
2013-03-30 23:02:00,58.0,42.0,30.02,SSE,168,0.0,-999.0,56,-99.99,,,-99.99,,2013-03-31 03:02:00,
2013-03-30 23:13:00,58.0,42.0,30.02,SSE,168,0.0,-999.0,56,-99.99,,,-99.99,,2013-03-31 03:13:00,
2013-03-30 23:22:00,58.0,42.0,30.03,SSE,168,0.0,-999.0,55,-99.99,,,-99.99,,2013-03-31 03:22:00,
2013-03-30 23:33:00,59.0,42.0,30.03,SSE,153,0.0,-999.0,54,-99.99,,,-99.99,,2013-03-31 03:33:00,
2013-03-30 23:43:00,59.0,42.0,30.03,SSE,153,0.0,-999.0,54,-99.99,,,-99.99,,2013-03-31 03:43:00,
2013-03-30 23:54:00,59.0,45.0,30.03,West,280,0.0,-999.0,60,-99.99,,,-99.99,,2013-03-31 03:54:00,